STARLINK-34491

Last updated on Fri Aug 08 2025 00:02:05 GMT+0000 (Coordinated Universal Time)

1 64780U 25147AB 25218.91668981 -.01624095 00000+0 -32797-1 0 9997 2 64780 53.1598 163.0452 0001477 104.5606 162.2276 15.49066047 5935
UTC large
Height (km)
Speed (km/s)
/
Latitude / Longitude
Inclination (degrees)
Orbital Period (minutes)
Azimuth
Elevation
Range (km)
Doppler Factor

Next 0 passes for location: London (51.5072 / 0.1276)

Sorry there are no passes over London.